Location: Balaclava NSW 2575, Australia
(34.4510°S, 150.4953°E)
Time: 17:23:18
(UTC+10:00)

Envisat - Pass Details

Date: 18 May 2021
Orbit: 764 x 766 km, 98.1° (Epoch: 18 June)

Event Time Altitude Azimuth Distance (km) Brightness Sun altitude
Rises 04:53:04 0° 6° (N) 3,215 6.4 -23.2°
Reaches altitude 10° 04:55:22 10° 3° (N) 2,298 5.6 -22.8°
Maximum altitude 05:00:23 65° 281° (WNW) 845 2.9 -21.8°
Enters shadow 05:02:56 30° 208° (SSW) 1,377 4.0 -21.2°
